Location: San Antonio
(29.4240°N, 98.4930°W)
Time: 07:33:45
(UTC-05:00)

Explorer 7 - Visible Passes

Search period start: 19 July 2024 00:00
Search period end: 29 July 2024 00:00
Orbit: 465 x 619 km, 50.3° (Epoch: 18 July)

Date Brightness Start Highest point End Pass type
(mag) Time Alt. Az. Time Alt. Az. Time Alt. Az.
19 Jul 10.1 03:06:54 10° NNW 03:06:54 10° NNW 03:07:10 10° NNW visible
21 Jul 10.2 06:13:21 10° N 06:14:21 11° NNE 06:15:19 10° NE visible
22 Jul 10.0 06:04:11 10° N 06:06:17 13° NNE 06:08:20 10° NE visible
23 Jul 9.9 05:55:23 10° N 05:58:10 16° NNE 06:00:52 10° ENE visible
24 Jul 10.2 00:47:52 10° N 00:47:52 10° N 00:47:54 10° N visible
24 Jul 9.7 05:46:42 10° NNW 05:50:00 20° NNE 05:53:11 10° E visible
24 Jul 8.5 21:15:04 10° SSE 21:17:31 15° SE 21:19:12 12° E visible
24 Jul 8.1 22:52:25 10° WSW 23:01:47 - NE 22:55:18 38° WSW visible
25 Jul 10.1 00:36:49 12° NNW 00:37:13 12° NNW 00:38:58 10° N visible
25 Jul 9.4 05:38:04 10° NNW 05:41:46 25° NE 05:45:20 10° E visible
25 Jul 8.2 21:05:49 10° S 21:09:00 20° SE 21:12:18 10° ENE visible
25 Jul 8.1 22:44:13 10° WSW 22:48:24 44° NW 22:52:44 10° NNE visible
26 Jul 8.9 05:29:27 10° NNW 05:33:28 32° NE 05:37:21 10° ESE visible
26 Jul 7.8 20:56:51 10° S 21:00:30 28° SE 21:04:17 10° ENE visible
26 Jul 8.7 22:36:05 10° WSW 22:40:04 34° NW 22:44:11 10° NNE visible
27 Jul 8.3 05:20:52 10° NNW 05:25:08 42° NE 05:29:13 10° ESE visible
27 Jul 9.2 22:28:00 10° W 22:31:43 26° NW 22:35:32 10° NNE visible
28 Jul 10.3 03:34:44 10° N 03:36:14 11° NNE 03:37:43 10° NE visible
28 Jul 7.6 05:12:18 10° NW 05:16:43 56° NE 05:20:58 10° ESE visible
28 Jul 9.6 22:20:02 10° W 22:23:22 21° NNW 22:26:49 10° NNE visible
